GW6965 Weather Reports


time (UTC)temp
F
wind
direction
speed
knots
gust
knots
rain 1hr
in
rain 24hr
in
rain mn
in
humidity
%
barometer
mb
20260507091612 32 28 0.0 0.0 0.00 0.00 0.00 96 1013.8
20260507091108 32 27 0.0 0.9 0.00 0.00 0.00 96 1013.7
20260507090604 32 27 0.0 0.9 0.00 0.00 0.00 96 1013.9
20260507090101 32 27 0.0 0.0 0.00 0.00 0.00 96 1013.7
20260507085558 32 27 0.9 0.9 0.00 0.00 0.00 96 1013.8
20260507085055 33 27 0.0 0.0 0.00 0.00 0.00 96 1013.8
20260507084551 33 27 0.0 0.0 0.00 0.00 0.00 96 1013.7
20260507084049 33 27 0.0 0.0 0.00 0.00 0.00 95 1013.8
20260507083545 33 26 0.0 0.9 0.00 0.00 0.00 95 1013.7
20260507083042 34 12 0.9 0.9 0.00 0.00 0.00 95 1013.7
20260507082538 34 330 0.9 0.9 0.00 0.00 0.00 95 1013.7
20260507082035 35 318 0.9 0.9 0.00 0.00 0.00 95 1013.6
20260507081531 35 318 0.0 0.0 0.00 0.00 0.00 95 1013.7
20260507081028 35 318 0.0 0.0 0.00 0.00 0.00 95 1013.8
20260507080523 35 303 0.0 0.0 0.00 0.00 0.00 95 1013.8
20260507080020 35 303 0.0 0.0 0.00 0.00 0.00 95 1013.9
20260507075515 35 304 0.0 0.9 0.00 0.00 0.00 95 1013.9
20260507075012 35 303 0.0 0.0 0.00 0.00 0.00 94 1013.8
20260507074509 36 303 0.0 0.0 0.00 0.00 0.00 94 1013.7
20260507074008 36 303 0.0 0.9 0.00 0.00 0.00 93 1013.7
20260507073503 37 254 0.0 0.9 0.00 0.00 0.00 93 1013.7
20260507073000 37 253 0.0 0.9 0.00 0.00 0.00 92 1013.6
20260507072458 37 233 0.0 0.0 0.00 0.00 0.00 91 1013.6
20260507071954 38 233 0.0 0.0 0.00 0.00 0.00 91 1013.6
20260507071452 39 234 0.0 0.0 0.00 0.00 0.00 90 1013.6
20260507070948 39 245 0.9 0.9 0.00 0.00 0.00 90 1013.5
20260507070446 39 253 0.0 1.7 0.00 0.00 0.00 90 1013.7
20260507065942 39 235 0.9 0.9 0.00 0.00 0.00 90 1013.5
20260507065439 39 249 1.7 2.6 0.00 0.00 0.00 89 1013.6
20260507064936 39 243 0.9 1.7 0.00 0.00 0.00 89 1013.6
20260507064434 39 239 0.9 1.7 0.00 0.00 0.00 89 1013.8
20260507063932 39 297 0.0 0.9 0.00 0.00 0.00 88 1013.6
20260507063428 39 298 0.0 1.7 0.00 0.00 0.00 89 1013.5
20260507062926 39 21 0.9 1.7 0.00 0.00 0.00 89 1013.6
20260507062423 40 325 0.0 0.9 0.00 0.00 0.00 89 1013.7
20260507061920 40 192 0.0 0.0 0.00 0.00 0.00 88 1013.8
20260507061418 40 280 0.0 0.9 0.00 0.00 0.00 87 1013.7
20260507060917 40 261 0.9 2.6 0.00 0.00 0.00 86 1013.7
20260507060413 40 282 2.6 3.5 0.00 0.00 0.00 87 1013.7
20260507055909 40 269 0.9 2.6 0.00 0.00 0.00 87 1013.7
20260507055404 40 254 0.9 1.7 0.00 0.00 0.00 86 1013.8
20260507054902 40 241 1.7 1.7 0.00 0.00 0.00 86 1013.5
20260507054358 41 256 0.9 1.7 0.00 0.00 0.00 86 1013.5
20260507053855 41 284 0.9 1.7 0.00 0.00 0.00 86 1013.6
20260507053353 41 298 0.0 1.7 0.00 0.00 0.00 86 1013.4
20260507052851 41 319 0.9 3.5 0.00 0.00 0.00 86 1013.7
20260507052348 41 261 2.6 5.2 0.00 0.00 0.00 88 1013.6
20260507051845 42 262 4.3 5.2 0.00 0.00 0.00 88 1013.7
20260507051343 42 271 4.3 5.2 0.00 0.00 0.00 90 1013.7
20260507050839 42 266 3.5 6.1 0.00 0.00 0.00 91 1013.8
20260507050336 42 291 4.3 6.1 0.00 0.00 0.00 92 1013.8
20260507045833 42 280 2.6 5.2 0.00 0.00 0.00 92 1013.7
20260507045329 42 263 2.6 2.6 0.00 0.00 0.00 93 1013.6
20260507044827 42 266 5.2 6.1 0.00 0.00 0.00 94 1013.6
20260507044323 43 306 1.7 2.6 0.00 0.00 0.00 95 1013.6
20260507043819 43 257 1.7 2.6 0.00 0.00 0.00 96 1013.6
20260507043316 43 2 0.0 2.6 0.00 0.00 0.00 97 1013.6
20260507042812 43 297 1.7 5.2 0.00 0.00 0.00 97 1013.6
20260507042308 43 275 1.7 2.6 0.00 0.00 0.00 97 1013.5
20260507041805 43 278 2.6 3.5 0.00 0.00 0.00 97 1013.4
20260507041301 43 250 1.7 2.6 0.00 0.00 0.00 97 1013.4
20260507040759 43 255 1.7 2.6 0.00 0.00 0.00 97 1013.5
20260507040255 43 260 1.7 1.7 0.00 0.00 0.00 97 1013.1
20260507035751 43 245 1.7 1.7 0.00 0.49 0.49 97 1013.2
20260507035246 43 211 0.0 0.0 0.00 0.49 0.49 97 1013.0
20260507034744 43 211 0.0 0.9 0.00 0.49 0.49 97 1012.8
20260507034241 43 211 0.0 0.0 0.00 0.49 0.49 97 1012.9
20260507033739 43 210 0.0 0.0 0.00 0.49 0.49 97 1012.8
20260507033236 43 210 0.0 0.0 0.00 0.49 0.49 97 1012.4
20260507032733 43 210 0.0 0.9 0.00 0.49 0.49 97 1012.6
20260507032229 43 210 0.0 0.0 0.00 0.49 0.49 97 1012.6
20260507031726 43 210 0.0 0.0 0.00 0.49 0.49 97 1012.9
20260507031223 43 210 0.0 0.0 0.00 0.49 0.49 97 1013.1
20260507030720 43 211 0.0 0.0 0.00 0.49 0.49 97 1013.1
20260507030217 43 211 0.0 0.0 0.00 0.49 0.49 97 1013.2
20260507025714 43 211 0.0 0.9 0.00 0.49 0.49 97 1013.4
20260507025211 42 210 0.0 0.9 0.00 0.49 0.49 97 1013.5
20260507024710 42 208 0.0 0.0 0.05 0.49 0.49 97 1013.3
20260507024206 42 208 0.0 0.9 0.17 0.49 0.49 97 1013.1
20260507023701 43 231 0.0 0.9 0.19 0.48 0.48 97 1013.3
20260507023159 42 242 0.0 0.0 0.07 0.46 0.46 97 1013.2
20260507022656 42 242 0.0 0.0 0.00 0.45 0.45 97 1013.3
20260507022152 42 242 0.0 0.0 0.00 0.45 0.45 97 1013.3
20260507021648 42 307 0.0 0.0 0.00 0.45 0.45 97 1013.4
20260507021143 42 275 0.9 0.9 0.00 0.45 0.45 97 1013.1
20260507020643 42 255 0.0 0.0 0.00 0.45 0.45 97 1013.4
20260507020138 42 255 0.0 0.0 0.00 0.45 0.45 97 1013.4
20260507015637 42 255 0.0 0.0 0.00 0.45 0.45 97 1013.2
20260507015134 42 255 0.0 0.0 0.00 0.45 0.45 96 1013.5
20260507014630 42 255 0.0 0.0 0.00 0.45 0.45 96 1013.6
20260507014126 42 255 0.0 0.0 0.00 0.45 0.45 96 1013.4
20260507013623 42 255 0.0 0.0 0.00 0.45 0.45 96 1013.5
20260507013120 42 255 0.0 0.0 0.00 0.45 0.45 96 1013.8
20260507012618 42 255 0.0 0.0 0.00 0.45 0.45 96 1013.4
20260507012113 42 255 0.0 0.0 0.00 0.45 0.45 96 1013.4
20260507011611 42 255 0.0 0.0 0.00 0.45 0.45 96 1013.3
20260507011107 42 255 0.0 0.0 0.00 0.45 0.45 96 1013.3
20260507010602 42 256 0.0 0.0 0.00 0.45 0.45 96 1013.3
20260507010058 42 255 0.0 0.0 0.00 0.45 0.45 95 1013.4
20260507005556 42 255 0.0 0.0 0.00 0.45 0.45 95 1013.4
20260507005052 42 255 0.0 0.0 0.00 0.45 0.45 95 1013.3
20260507004549 43 255 0.0 0.0 0.00 0.45 0.45 95 1013.1
20260507004046 43 256 0.0 0.0 0.00 0.45 0.45 95 1012.8
20260507003542 43 255 0.0 0.0 0.00 0.45 0.45 94 1012.9
20260507003037 44 255 0.0 0.0 0.00 0.45 0.45 94 1012.6
20260507002534 44 255 0.0 0.0 0.00 0.45 0.45 94 1012.5
20260507002030 44 255 0.0 0.0 0.00 0.45 0.45 93 1012.6
20260507001527 44 255 0.0 0.0 0.00 0.45 0.45 93 1012.8
20260507001025 44 255 0.0 0.9 0.00 0.45 0.45 93 1012.8
20260507000520 44 255 0.9 0.9 0.00 0.45 0.45 92 1012.6
20260507000016 44 257 0.0 1.7 0.00 0.45 0.45 92 1012.6
20260506235514 44 284 0.0 0.0 0.00 0.45 0.45 92 1012.4
20260506235009 45 268 0.9 0.9 0.00 0.45 0.45 92 1012.6
20260506234507 45 247 0.0 0.9 0.00 0.45 0.45 92 1012.5
20260506234004 45 255 0.0 0.9 0.00 0.45 0.45 91 1012.6
20260506233500 45 255 0.0 1.7 0.00 0.45 0.45 91 1012.4
20260506232957 45 257 0.9 1.7 0.00 0.45 0.45 91 1012.3
20260506232454 45 251 0.0 0.9 0.00 0.45 0.45 92 1012.3
20260506231949 45 251 0.0 0.9 0.00 0.45 0.45 92 1012.3
20260506231447 45 273 0.0 0.9 0.00 0.45 0.45 92 1012.2
20260506230944 45 273 0.0 0.0 0.00 0.45 0.45 91 1012.2
20260506230440 44 274 0.0 0.9 0.00 0.45 0.45 91 1012.0
20260506225937 44 257 0.0 1.7 0.00 0.45 0.45 91 1012.0
20260506225434 44 284 0.9 2.6 0.00 0.45 0.45 91 1012.1
20260506224931 44 274 2.6 2.6 0.00 0.45 0.45 91 1012.0
20260506224428 45 256 1.7 2.6 0.00 0.45 0.45 91 1011.7
20260506223925 45 282 2.6 2.6 0.00 0.45 0.45 91 1011.8
20260506223420 45 301 1.7 1.7 0.00 0.45 0.45 91 1011.8
20260506222918 45 259 2.6 2.6 0.00 0.45 0.45 91 1012.0
20260506222414 45 249 1.7 2.6 0.00 0.45 0.45 91 1011.9
20260506221911 45 280 0.0 2.6 0.00 0.45 0.45 91 1011.7
20260506221408 45 294 1.7 2.6 0.00 0.45 0.45 90 1011.6
20260506220906 45 287 0.9 3.5 0.00 0.45 0.45 91 1011.8
20260506220401 45 279 0.0 2.6 0.00 0.45 0.45 91 1011.6
20260506215858 45 287 2.6 5.2 0.00 0.45 0.45 90 1011.8
20260506215354 45 270 1.7 3.5 0.00 0.45 0.45 91 1011.9
20260506214850 45 260 1.7 3.5 0.00 0.45 0.45 91 1011.8
20260506214347 45 289 1.7 2.6 0.00 0.45 0.45 91 1011.7
20260506213845 45 264 2.6 3.5 0.00 0.45 0.45 91 1011.8
20260506213342 45 276 0.9 1.7 0.00 0.45 0.45 91 1011.6
20260506212839 45 277 1.7 5.2 0.00 0.45 0.45 91 1011.7
20260506212335 45 267 2.6 6.1 0.00 0.45 0.45 91 1011.8
20260506211830 45 295 3.5 6.1 0.00 0.45 0.45 91 1011.6
20260506211326 45 289 1.7 6.1 0.00 0.45 0.45 91 1011.4
20260506210824 45 0 0.9 3.5 0.00 0.45 0.45 91 1011.5
20260506210321 45 4 1.7 5.2 0.00 0.45 0.45 92 1011.4
20260506205818 45 238 0.9 1.7 0.00 0.45 0.45 92 1011.5
20260506205314 45 275 2.6 7.0 0.00 0.45 0.45 92 1011.5
20260506204810 45 250 3.5 5.2 0.00 0.45 0.45 92 1011.4
20260506204308 45 245 3.5 6.1 0.00 0.45 0.45 93 1011.3
20260506203806 45 281 1.7 2.6 0.00 0.45 0.45 93 1011.2
20260506203303 45 276 5.2 6.1 0.00 0.45 0.45 92 1011.1
20260506202759 45 186 1.7 2.6 0.00 0.45 0.45 92 1010.9
20260506202256 45 237 2.6 7.8 0.00 0.45 0.45 92 1011.0
20260506201753 45 293 7.0 7.8 0.00 0.45 0.45 92 1010.8
20260506201250 45 292 2.6 3.5 0.00 0.45 0.45 92 1010.6
20260506200747 45 304 2.6 3.5 0.00 0.45 0.45 92 1010.3
20260506200243 45 280 0.9 5.2 0.00 0.45 0.45 93 1010.7
20260506195739 45 267 3.5 6.1 0.00 0.45 0.45 92 1010.7
20260506195236 45 261 3.5 5.2 0.00 0.45 0.45 92 1010.6
20260506194733 46 299 5.2 11.3 0.00 0.45 0.45 91 1010.5
20260506194230 46 81 0.9 2.6 0.00 0.45 0.45 92 1010.2
20260506193728 46 271 1.7 5.2 0.00 0.45 0.45 93 1010.1
20260506193224 46 17 1.7 5.2 0.00 0.45 0.45 93 1010.2
20260506192721 46 266 3.5 5.2 0.00 0.45 0.45 93 1010.2
20260506192218 46 248 1.7 3.5 0.00 0.45 0.45 94 1010.2
20260506191714 45 255 0.9 0.9 0.00 0.45 0.45 94 1010.0
20260506191210 45 290 3.5 5.2 0.00 0.45 0.45 94 1010.2
20260506190708 45 317 0.9 5.2 0.00 0.45 0.45 94 1010.2
20260506190204 45 282 1.7 7.0 0.00 0.45 0.45 93 1010.2
20260506185702 46 259 2.6 7.0 0.00 0.45 0.45 94 1010.2
20260506185158 46 243 3.5 3.5 0.00 0.45 0.45 94 1010.1
20260506184656 46 267 0.9 2.6 0.00 0.45 0.45 94 1010.2
20260506184153 46 10 1.7 5.2 0.00 0.45 0.45 94 1009.9
20260506183649 46 12 0.9 5.2 0.00 0.45 0.45 94 1010.0
20260506183145 46 253 3.5 5.2 0.00 0.45 0.45 94 1009.9
20260506182643 46 260 2.6 3.5 0.00 0.45 0.45 94 1009.7
20260506182139 46 329 1.7 2.6 0.05 0.45 0.45 94 1009.7
20260506181638 46 255 1.7 2.6 0.05 0.45 0.45 94 1009.6
20260506181134 46 258 1.7 5.2 0.00 0.44 0.44 94 1009.7
20260506180631 46 293 1.7 6.1 0.00 0.44 0.44 94 1009.7
20260506180128 46 263 1.7 1.7 0.00 0.44 0.44 94 1009.4
20260506175624 46 346 0.0 3.5 0.00 0.44 0.44 94 1009.3
20260506175120 46 270 0.9 2.6 0.00 0.44 0.44 94 1009.5
20260506174619 46 266 0.0 1.7 0.00 0.44 0.44 94 1009.3
20260506174115 46 319 1.7 1.7 0.00 0.44 0.44 94 1009.3
20260506173613 46 282 0.9 2.6 0.00 0.44 0.44 94 1009.3
20260506173110 46 285 3.5 6.1 0.00 0.44 0.44 94 1009.1
20260506172607 46 284 1.7 3.5 0.00 0.44 0.44 95 1009.4
20260506172103 46 18 0.9 0.9 0.00 0.44 0.44 94 1009.4
20260506171601 45 110 0.0 1.7 0.00 0.44 0.44 94 1009.3
20260506171058 45 27 4.3 5.2 0.00 0.44 0.44 94 1009.1
20260506170555 45 67 0.9 1.7 0.00 0.44 0.44 95 1009.0
20260506170053 45 0 3.5 3.5 0.00 0.44 0.44 95 1009.2
20260506165551 45 216 0.0 1.7 0.00 0.44 0.44 95 1009.2
20260506165047 45 27 0.0 5.2 0.00 0.44 0.44 95 1009.2
20260506164544 45 258 3.5 3.5 0.00 0.44 0.44 95 1009.3
20260506164042 45 258 1.7 2.6 0.00 0.44 0.44 95 1009.1
20260506163537 44 317 0.9 1.7 0.00 0.44 0.44 95 1009.3
20260506163033 45 232 1.7 3.5 0.00 0.44 0.44 95 1009.0
20260506162530 44 242 0.9 0.9 0.00 0.44 0.44 95 1009.1
20260506162027 44 246 1.7 6.1 0.00 0.44 0.44 95 1009.2
20260506161525 44 288 2.6 2.6 0.00 0.44 0.44 95 1009.2
20260506161021 45 280 0.9 3.5 0.00 0.44 0.44 95 1009.1
20260506160519 45 234 0.9 2.6 0.00 0.44 0.44 95 1009.0
20260506160016 45 78 1.7 2.6 0.00 0.44 0.44 95 1008.9
20260506155515 45 252 0.0 0.9 0.00 0.44 0.44 95 1009.2
20260506153646 44 63 0.0 1.7 0.00 0.43 0.43 96 1008.7
20260506153143 44 243 0.0 0.9 0.00 0.43 0.43 96 1008.8
20260506152640 44 235 0.9 2.6 0.05 0.43 0.43 95 1009.2
20260506152137 44 268 0.9 7.0 0.05 0.43 0.43 95 1009.1
20260506151636 44 259 1.7 1.7 0.00 0.42 0.42 96 1008.9
20260506151132 44 275 0.9 2.6 0.00 0.42 0.42 95 1008.9
20260506150629 44 224 0.9 1.7 0.00 0.42 0.42 96 1009.0
20260506150126 44 251 1.7 2.6 0.00 0.42 0.42 96 1009.3
20260506145623 44 283 1.7 3.5 0.07 0.42 0.42 96 1009.0
20260506145120 44 235 1.7 3.5 0.07 0.42 0.42 96 1008.8
20260506144617 44 272 2.6 5.2 0.00 0.41 0.41 96 1008.9
20260506144114 44 5 0.9 3.5 0.00 0.41 0.41 95 1008.7
20260506143612 45 241 2.6 2.6 0.00 0.41 0.41 95 1008.9
20260506143110 45 252 0.9 1.7 0.00 0.41 0.41 95 1008.6
20260506142607 45 62 0.9 2.6 0.00 0.41 0.41 96 1008.3
20260506142106 45 180 0.0 0.0 0.00 0.41 0.41 96 1008.0
20260506141602 46 298 0.0 2.6 0.00 0.41 0.41 96 1008.3
20260506141101 46 255 0.0 1.7 0.00 0.41 0.41 96 1008.4
20260506140558 47 283 0.0 2.6 0.00 0.41 0.41 96 1008.5
20260506140055 47 260 0.0 0.0 0.05 0.41 0.41 97 1008.5
20260506135552 47 279 3.5 3.5 0.05 0.41 0.41 97 1008.6
20260506135048 48 273 1.7 1.7 0.00 0.40 0.40 97 1008.7
20260506134545 48 12 1.7 2.6 0.00 0.40 0.40 97 1008.3
20260506134041 48 25 0.9 1.7 0.07 0.40 0.40 97 1008.6
20260506133538 48 264 1.7 3.5 0.07 0.40 0.40 97 1008.5
20260506133035 49 254 1.7 1.7 0.00 0.39 0.39 97 1008.6
20260506132532 49 252 0.9 0.9 0.07 0.39 0.39 97 1008.4
20260506132029 49 244 0.0 0.0 0.12 0.39 0.39 97 1008.4
20260506131527 49 244 0.0 0.0 0.17 0.38 0.38 97 1008.6
20260506131023 49 245 0.9 1.7 0.12 0.36 0.36 97 1008.7
20260506130520 49 240 0.9 1.7 0.12 0.35 0.35 97 1008.8
20260506130017 49 218 0.0 0.9 0.12 0.34 0.34 97 1008.7
20260506125515 49 189 0.0 0.9 0.12 0.33 0.33 97 1008.7
20260506125013 49 273 0.9 1.7 0.17 0.32 0.32 97 1008.6
20260506124511 48 257 2.6 2.6 0.12 0.30 0.30 97 1008.8
20260506124008 48 127 1.7 2.6 0.12 0.29 0.29 97 1008.9
20260506123506 48 279 3.5 5.2 0.12 0.28 0.28 97 1009.3
20260506123004 48 291 1.7 3.5 0.07 0.26 0.26 96 1009.0
20260506122500 49 252 0.9 1.7 0.12 0.26 0.26 96 1008.8
20260506121959 50 257 1.7 1.7 0.05 0.25 0.25 97 1008.9
20260506121455 49 214 0.0 0.0 0.07 0.24 0.24 97 1008.5
20260506120952 49 214 0.0 0.0 0.12 0.24 0.24 97 1008.5
20260506120449 49 214 0.0 0.0 0.12 0.23 0.23 97 1008.3
20260506115947 49 214 0.0 0.0 0.07 0.22 0.22 97 1008.3
20260506115445 49 214 0.0 0.0 0.05 0.21 0.21 97 1008.4
20260506114943 49 214 0.0 0.0 0.00 0.20 0.20 96 1008.5
20260506114440 49 214 0.0 0.9 0.00 0.20 0.20 96 1008.5
20260506113938 50 102 0.0 0.9 0.07 0.20 0.20 97 1008.4
20260506113436 50 12 0.0 0.9 0.07 0.20 0.20 97 1008.3
20260506112932 49 72 1.7 2.6 0.05 0.19 0.19 97 1008.4
20260506112430 49 72 2.6 2.6 0.05 0.19 0.19 97 1008.3
20260506111927 49 114 1.7 2.6 0.07 0.18 0.18 97 1008.4
20260506111425 48 85 0.9 1.7 0.12 0.18 0.18 97 1008.4
20260506110921 48 92 0.9 1.7 0.12 0.17 0.17 97 1008.4
20260506110420 48 57 0.9 0.9 0.12 0.16 0.16 97 1008.7
20260506105916 48 125 0.0 0.9 0.12 0.15 0.15 97 1008.7
20260506105412 47 186 0.0 0.0 0.14 0.14 0.14 97 1008.9
20260506104910 47 281 0.0 0.9 0.12 0.13 0.13 97 1008.7
20260506104408 47 150 0.0 0.0 0.05 0.12 0.12 97 1008.8
20260506103905 47 149 0.0 0.0 0.07 0.11 0.11 97 1008.6
20260506103402 47 149 0.0 0.0 0.07 0.11 0.11 97 1008.7
20260506102859 47 150 0.0 0.0 0.00 0.10 0.10 97 1008.6
20260506102358 47 150 0.0 0.0 0.05 0.10 0.10 97 1008.6
20260506101854 47 150 0.0 0.0 0.12 0.10 0.10 97 1008.7
20260506101350 47 150 0.0 0.0 0.07 0.09 0.09 97 1008.9
20260506100848 47 150 0.0 0.0 0.05 0.08 0.08 97 1008.6
20260506100346 47 146 0.0 0.0 0.07 0.07 0.07 97 1008.8
20260506095844 47 84 0.0 0.0 0.12 0.07 0.07 97 1008.9
20260506095342 47 82 0.0 0.9 0.12 0.06 0.06 97 1008.9
20260506094838 47 102 0.0 0.9 0.07 0.05 0.05 97 1008.9
20260506094337 47 103 0.0 0.9 0.00 0.04 0.04 97 1009.2
20260506093835 47 60 0.9 0.9 0.05 0.04 0.04 97 1009.1
20260506093332 47 19 0.9 0.9 0.05 0.04 0.04 97 1008.9
20260506092829 46 88 0.9 1.7 0.00 0.03 0.03 96 1008.8
20260506092327 46 237 0.0 0.0 0.07 0.03 0.03 96 1008.8